This demonstration page uses our WeatherBlox Daily Observations layout. Learn more.

Left ArrowRight Arrow

Hourly Observations for May 2, 2022

Temp ( °F °C ) Dew Point ( °F °C ) Humidity (%) Winds ( mph kmh ) Pressure ( in mb ) Visibility ( mi km ) Precip ( " mm )
12:53 am 00:53 Clear 40 4.4 26 -3.3 58 58 SW 8 13 30.01 1016 10 16 0.00 0.00
1:53 am 01:53 Clear 39 3.9 26 -3.3 60 60 Calm 30.00 1016 10 16 0.00 0.00
2:53 am 02:53 Clear 38 3.3 26 -3.3 62 62 SE 3 6 29.98 1015 10 16 0.00 0.00
3:53 am 03:53 Clear 42 5.6 27 -2.8 55 55 Calm 29.96 1015 10 16 0.00 0.00
4:53 am 04:53 Clear 41 5 29 -1.7 62 62 E 5 7 29.95 1014 10 16 0.00 0.00
5:53 am 05:53 Clear 31 -0.6 25 -3.9 79 79 NW 6 9 29.96 1015 10 16 0.00 0.00
6:53 am 06:53 Sunny 33 0.6 26 -3.3 75 75 E 5 7 29.94 1014 10 16 0.00 0.00
7:53 am 07:53 Sunny 49 9.4 34 1.1 56 56 SE 13 20 29.91 1013 10 16 0.00 0.00
8:53 am 08:53 Sunny 53 11.7 34 1.1 48 48 NE 8 13 29.91 1013 10 16 0.00 0.00
9:53 am 09:53 Sunny 57 13.9 32 0 39 39 NNE 3 6 29.90 1013 10 16 0.00 0.00
10:53 am 10:53 Sunny 58 14.4 32 0 38 38 E 5 7 29.88 1012 10 16 0.00 0.00
11:53 am 11:53 Sunny 61 16.1 31 -0.6 32 32 Calm 29.85 1011 10 16 0.00 0.00
12:53 pm 12:53 Mostly Cloudy 63 17.2 32 0 31 31 ENE 8 13 29.83 1010 10 16 0.00 0.00
1:53 pm 13:53 Mostly Cloudy 64 17.8 32 0 30 30 SSE 14 22 29.80 1009 10 16 0.00 0.00
2:53 pm 14:53 Cloudy 65 18.3 30 -1.1 27 27 VRB 6 9 29.78 1009 10 16 0.00 0.00
3:53 pm 15:53 Mostly Cloudy 66 18.9 30 -1.1 26 26 S 16 26 29.76 1008 10 16 0.00 0.00
4:53 pm 16:53 Partly Cloudy 65 18.3 30 -1.1 27 27 SE 13 20 29.76 1008 10 16 0.00 0.00
5:53 pm 17:53 Mostly Sunny 64 17.8 33 0.6 32 32 ESE 15 24 29.77 1008 10 16 0.00 0.00
6:53 pm 18:53 Sunny 63 17.2 33 0.6 33 33 ESE 15 24 29.77 1008 10 16 0.00 0.00
7:53 pm 19:53 Sunny 60 15.6 35 1.7 39 39 ESE 16 26 29.75 1008 10 16 0.00 0.00
8:53 pm 20:53 Partly Cloudy 57 13.9 37 2.8 47 47 E 14 22 29.77 1008 10 16 0.00 0.00
9:53 pm 21:53 Mostly Cloudy 55 12.8 38 3.3 53 53 E 12 19 29.78 1009 10 16 0.00 0.00
10:53 pm 22:53 Mostly Cloudy 53 11.7 38 3.3 57 57 ENE 10 17 29.79 1009 10 16 0.00 0.00
11:53 pm 23:53 Mostly Cloudy 52 11.1 38 3.3 59 59 E 12 19 29.78 1008 10 16 0.00 0.00

Powered by AerisWeather